Retour au catalogue

KUIPER-00604

ActifCommunicationsLEO
NORAD 69769·PAYLOAD·🇺🇸 United States

Lancé Jul 2, 2026 depuis Cape Canaveral Space Force Station

Loading…

Prochains Passages (prochaines 24 heures)

TLE

FraisSource: CelesTrak SupGP

Époque: Sep 14, 2026, 21:32 UTC

1 69769C 26151G   26257.89753472  .00003773  00000+0  49495-3 0  2579
2 69769  51.9009 253.9682 0000643  29.6697 210.2426 14.79839323    17

Suivez KUIPER-00604 en temps réel avec AllMySat

Download on the App Store